San Juan, PR

12:00 AM AST on December 07, 2019 (GMT -0400)
Luis Munoz Marin International

Weather History for TJSJ - November, 2019

Change the Weather History Date:

Friday, November 22, 2019

  Actual Average Record
Temperature  
Mean Temperature 82 °F 80 °F  
Max Temperature 86 °F 85 °F 92 °F (1995)
Min Temperature 77 °F 75 °F 68 °F (1956)
Degree Days  
Heating Degree Days 0 0  
Month to date heating degree days 0 0  
Since 1 July heating degree days 0 0  
Cooling Degree Days 17 15  
Month to date cooling degree days 386 348  
Year to date cooling degree days 5594 5307  
Growing Degree Days 30 (Base 50)    
Moisture  
Dew Point 69 °F    
Average Humidity 73    
Maximum Humidity 91    
Minimum Humidity 55    
Precipitation  
Precipitation 0.13 in 0.20 in 3.58 in (1977)
Month to date precipitation 3.69 4.84  
Year to date precipitation 40.48 49.82  
Sea Level Pressure  
Sea Level Pressure 29.92 in    
Wind  
Wind Speed 11 mph (NNE)    
Max Wind Speed 21 mph    
Max Gust Speed 26 mph    
Visibility 10 miles    
Events Rain    
T = Trace of Precipitation, MM = Missing Value Source: NWS Daily Summary

Daily Weather History Graph

Daily Weather History Graph

Search for Another Location

Airport or City:

Astronomy

Nov. 22, 2019 Rise Set
Actual Time 6:34 AM AST 5:45 PM AST
Civil Twilight 6:11 AM AST 6:08 PM AST
Nautical Twilight 5:44 AM AST 6:35 PM AST
Astronomical Twilight 5:18 AM AST 7:02 PM AST
Moon 2:27 AM AST (11/22) 2:58 PM AST (11/22)
Length of Visible Light 11h 57m
Length of Day
11h 11m
Waning Crescent, 20% of the Moon is Illuminated
Nov 22
Waning Crescent
Nov 26
New
Dec 4
First Quarter
Dec 12
Full
Dec 19
Last Quarter

Hourly Weather History & Observations

Time (AST) Temp. Heat Index Dew Point Humidity Pressure Visibility Wind Dir Wind Speed Gust Speed Precip Events Conditions
12:56 AM 79.0 °F - 75.0 °F 88% 29.91 in 9.0 mi North 9.2 mph - 0.05 in Rain Light Rain
1:56 AM 80.1 °F 84.2 °F 73.0 °F 79% 29.88 in 10.0 mi NE 9.2 mph - 0.01 in   Mostly Cloudy
2:56 AM 81.0 °F 84.9 °F 71.1 °F 72% 29.87 in 10.0 mi North 17.3 mph 24.2 mph 0.06 in Rain Light Rain
3:56 AM 81.0 °F 84.1 °F 69.1 °F 67% 29.87 in 10.0 mi North 12.7 mph - 0.00 in   Mostly Cloudy
4:56 AM 82.0 °F 84.5 °F 66.9 °F 60% 29.88 in 10.0 mi North 13.8 mph - N/A   Mostly Cloudy
5:56 AM 82.0 °F 84.1 °F 66.0 °F 58% 29.89 in 10.0 mi North 11.5 mph - N/A   Mostly Cloudy
6:56 AM 82.0 °F 84.5 °F 66.9 °F 60% 29.91 in 10.0 mi North 10.4 mph - N/A   Scattered Clouds
7:56 AM 82.0 °F 84.9 °F 68.0 °F 62% 29.93 in 10.0 mi North 11.5 mph - N/A   Mostly Cloudy
8:56 AM 82.0 °F 84.9 °F 68.0 °F 62% 29.95 in 10.0 mi NNW 8.1 mph - N/A   Mostly Cloudy
9:56 AM 82.0 °F 86.3 °F 71.1 °F 69% 29.96 in 10.0 mi North 9.2 mph - 0.00 in   Scattered Clouds
10:56 AM 82.9 °F 88.0 °F 72.0 °F 69% 29.96 in 10.0 mi NNE 13.8 mph 21.9 mph N/A   Scattered Clouds
11:56 AM 81.0 °F 85.8 °F 73.0 °F 77% 29.94 in 10.0 mi NNE 10.4 mph - 0.00 in Rain Light Rain
12:56 PM 80.1 °F 83.8 °F 72.0 °F 76% 29.93 in 10.0 mi East 8.1 mph - 0.00 in   Mostly Cloudy
1:56 PM 82.0 °F 85.5 °F 69.1 °F 65% 29.91 in 10.0 mi NNE 10.4 mph - 0.00 in   Mostly Cloudy
2:56 PM 82.9 °F 85.0 °F 66.0 °F 56% 29.89 in 10.0 mi NNE 12.7 mph 19.6 mph 0.00 in   Mostly Cloudy
3:56 PM 82.9 °F 85.0 °F 66.0 °F 56% 29.89 in 10.0 mi NNE 11.5 mph - N/A   Mostly Cloudy
4:56 PM 82.9 °F 84.6 °F 64.9 °F 54% 29.90 in 10.0 mi NNE 10.4 mph 20.7 mph N/A   Overcast
5:56 PM 82.9 °F 85.0 °F 66.0 °F 56% 29.90 in 10.0 mi NE 11.5 mph - N/A   Overcast
6:56 PM 82.9 °F 84.6 °F 64.9 °F 54% 29.91 in 10.0 mi NNE 9.2 mph - N/A   Mostly Cloudy
7:56 PM 82.0 °F 84.1 °F 66.0 °F 58% 29.93 in 10.0 mi NE 8.1 mph - N/A   Mostly Cloudy
8:56 PM 78.1 °F - 71.1 °F 79% 29.94 in 10.0 mi ENE 8.1 mph - 0.00 in   Scattered Clouds
9:56 PM 81.0 °F 83.8 °F 68.0 °F 65% 29.96 in 10.0 mi NE 9.2 mph - 0.02 in   Scattered Clouds
10:56 PM 81.0 °F 83.8 °F 68.0 °F 65% 29.95 in 10.0 mi NE 9.2 mph - 0.00 in   Scattered Clouds
11:56 PM 81.0 °F 84.1 °F 69.1 °F 67% 29.95 in 10.0 mi NE 10.4 mph - N/A   Scattered Clouds